TimeAST,TemperatureF,Dew PointF,Humidity,Sea Level PressureIn,VisibilityMPH,Wind Direction,Wind SpeedMPH,Gust SpeedMPH,PrecipitationIn,Events,Conditions,WindDirDegrees,DateUTC
12:56 AM,78.1,73.0,84,30.01,10.0,Calm,Calm,-,N/A,,Mostly Cloudy,0,2013-04-10 04:56:00
1:56 AM,77.0,72.0,84,29.99,10.0,East,5.8,-,N/A,,Mostly Cloudy,90,2013-04-10 05:56:00
2:56 AM,77.0,72.0,84,29.97,10.0,East,3.5,-,N/A,,Scattered Clouds,100,2013-04-10 06:56:00
3:56 AM,77.0,73.0,88,29.97,10.0,Calm,Calm,-,0.02,,Mostly Cloudy,0,2013-04-10 07:56:00
4:56 AM,75.9,72.0,87,29.98,10.0,East,5.8,-,N/A,,Scattered Clouds,100,2013-04-10 08:56:00
5:56 AM,75.9,71.1,85,30.00,10.0,ESE,3.5,-,0.01,,Scattered Clouds,110,2013-04-10 09:56:00
6:56 AM,77.0,71.1,82,30.02,10.0,SE,3.5,-,0.00,Rain,Light Rain,130,2013-04-10 10:56:00
7:56 AM,77.0,71.1,82,30.04,10.0,ESE,10.4,-,0.00,Rain,Light Rain,120,2013-04-10 11:56:00
8:56 AM,81.0,70.0,69,30.05,10.0,ESE,11.5,-,0.00,,Scattered Clouds,110,2013-04-10 12:56:00
9:56 AM,84.0,68.0,58,30.06,10.0,East,11.5,-,N/A,,Scattered Clouds,100,2013-04-10 13:56:00
10:56 AM,84.9,70.0,61,30.05,10.0,ENE,17.3,-,N/A,,Scattered Clouds,60,2013-04-10 14:56:00
11:56 AM,86.0,70.0,59,30.04,10.0,ENE,16.1,19.6,N/A,,Scattered Clouds,70,2013-04-10 15:56:00
12:56 PM,86.0,70.0,59,30.02,10.0,NE,17.3,24.2,N/A,,Scattered Clouds,50,2013-04-10 16:56:00
1:56 PM,86.0,71.1,61,30.00,10.0,East,21.9,26.5,N/A,,Scattered Clouds,80,2013-04-10 17:56:00
2:56 PM,84.9,70.0,61,29.98,10.0,ENE,19.6,-,N/A,,Scattered Clouds,70,2013-04-10 18:56:00
3:56 PM,84.9,69.1,59,29.97,10.0,ENE,20.7,-,N/A,,Scattered Clouds,60,2013-04-10 19:56:00
4:56 PM,82.9,69.1,63,29.96,10.0,ENE,19.6,-,N/A,,Scattered Clouds,60,2013-04-10 20:56:00
5:56 PM,81.0,70.0,69,29.97,10.0,East,15.0,19.6,N/A,,Scattered Clouds,80,2013-04-10 21:56:00
6:56 PM,78.1,71.1,79,29.99,10.0,East,8.1,-,0.01,,Scattered Clouds,100,2013-04-10 22:56:00
7:56 PM,79.0,70.0,74,30.01,10.0,ENE,16.1,19.6,0.00,,Scattered Clouds,70,2013-04-10 23:56:00
8:56 PM,78.1,69.1,74,30.02,10.0,East,11.5,-,N/A,,Scattered Clouds,80,2013-04-11 00:56:00
9:56 PM,78.1,70.0,76,30.03,10.0,East,13.8,-,N/A,,Scattered Clouds,80,2013-04-11 01:56:00
10:56 PM,78.1,68.0,71,30.04,10.0,East,8.1,-,0.01,,Partly Cloudy,90,2013-04-11 02:56:00
11:56 PM,77.0,68.0,74,30.02,10.0,East,5.8,-,N/A,,Partly Cloudy,100,2013-04-11 03:56:00